FW7740 Weather Reports


Display with metric or nautical units.
time (UTC)temp
F
wind
direction
speed
MPH
gust
MPH
rain 1hr
in
rain 24hr
in
rain mn
in
humidity
%
barometer
mb
20260906162554 98 314 1.0 2.0 0.00 0.00 0.00 40 1017.0
20260906162048 98 326 2.0 2.0 0.00 0.00 0.00 41 1017.3
20260906161543 98 121 2.0 2.0 0.00 0.00 0.00 40 1017.0
20260906161042 98 313 2.0 2.0 0.00 0.00 0.00 42 1017.0
20260906160541 98 349 3.0 2.0 0.00 0.00 0.00 41 1017.3
20260906160040 98 339 1.0 1.0 0.00 0.00 0.00 44 1017.3
20260906155538 97 322 1.0 2.0 0.00 0.00 0.00 43 1017.0
20260906155034 97 5 2.0 2.0 0.00 0.00 0.00 44 1017.0
20260906154529 97 68 1.0 2.0 0.00 0.00 0.00 43 1017.0
20260906154028 96 311 0.0 1.0 0.00 0.00 0.00 45 1017.3
20260906153527 95 335 2.0 2.0 0.00 0.00 0.00 46 1017.3
20260906153023 95 348 2.0 2.0 0.00 0.00 0.00 46 1017.3
20260906152516 95 303 1.0 1.0 0.00 0.00 0.00 47 1017.0
20260906152015 95 294 1.0 1.0 0.00 0.00 0.00 47 1017.0
20260906151511 93 320 0.0 0.0 0.00 0.00 0.00 50 1017.0
20260906151007 93 144 3.0 3.0 0.00 0.00 0.00 51 1017.0
20260906150502 91 267 0.0 0.0 0.00 0.00 0.00 53 1017.0
20260906145956 91 266 1.0 2.0 0.00 0.00 0.00 55 1017.0
20260906145455 90 279 1.0 1.0 0.00 0.00 0.00 56 1017.0
20260906144955 90 353 0.0 0.0 0.00 0.00 0.00 56 1017.0
20260906144450 89 273 2.0 1.0 0.00 0.00 0.00 58 1017.0
20260906143945 89 272 2.0 2.0 0.00 0.00 0.00 58 1016.6
20260906143441 88 1 1.0 1.0 0.00 0.00 0.00 59 1017.0
20260906142936 87 1 1.0 1.0 0.00 0.00 0.00 61 1017.0
20260906142431 87 19 1.0 1.0 0.00 0.00 0.00 61 1017.0
20260906141926 86 16 0.0 0.0 0.00 0.00 0.00 62 1017.0
20260906141425 86 16 1.0 2.0 0.00 0.00 0.00 62 1017.0
20260906140920 85 16 0.0 0.0 0.00 0.00 0.00 64 1017.0
20260906140415 83 15 1.0 1.0 0.00 0.00 0.00 66 1017.0
20260906135913 82 16 1.0 1.0 0.00 0.00 0.00 68 1017.0
20260906135412 82 16 1.0 1.0 0.00 0.00 0.00 70 1017.0
20260906134908 81 15 0.0 0.0 0.00 0.00 0.00 70 1017.0
20260906134403 80 15 1.0 1.0 0.00 0.00 0.00 72 1016.6
20260906133858 79 16 0.0 0.0 0.00 0.00 0.00 74 1016.6
20260906133353 79 16 1.0 1.0 0.00 0.00 0.00 75 1017.0
20260906132849 78 16 1.0 1.0 0.00 0.00 0.00 77 1017.0
20260906132344 77 0 1.0 1.0 0.00 0.00 0.00 77 1017.0
20260906131839 76 337 1.0 1.0 0.00 0.00 0.00 80 1017.0
20260906131334 76 276 0.0 1.0 0.00 0.00 0.00 80 1017.0
20260906130831 75 275 0.0 0.0 0.00 0.00 0.00 81 1017.0
20260906130330 75 275 0.0 0.0 0.00 0.00 0.00 81 1017.0
20260906125829 75 275 0.0 0.0 0.00 0.00 0.00 82 1017.0
20260906125326 74 276 0.0 0.0 0.00 0.00 0.00 83 1016.6
20260906124821 73 275 0.0 0.0 0.00 0.00 0.00 86 1016.6
20260906124317 71 268 0.0 0.0 0.00 0.00 0.00 89 1016.6
20260906123816 70 267 0.0 0.0 0.00 0.00 0.00 91 1016.6
20260906123311 70 276 0.0 0.0 0.00 0.00 0.00 91 1016.3
20260906122811 70 276 0.0 0.0 0.00 0.00 0.00 92 1016.3
20260906122301 70 276 0.0 0.0 0.00 0.00 0.00 92 1016.3
20260906121758 69 276 0.0 0.0 0.00 0.00 0.00 93 1016.3
20260906121253 69 276 0.0 0.0 0.00 0.00 0.00 92 1016.3
20260906120748 69 276 0.0 0.0 0.00 0.00 0.00 93 1016.3
20260906120245 69 276 0.0 0.0 0.00 0.00 0.00 93 1016.3
20260906115740 69 276 0.0 0.0 0.00 0.00 0.00 92 1016.3
20260906115235 70 276 0.0 0.0 0.00 0.00 0.00 92 1016.3
20260906114734 70 276 0.0 0.0 0.00 0.00 0.00 92 1015.9
20260906114230 70 276 0.0 0.0 0.00 0.00 0.00 92 1015.9
20260906113725 70 276 0.0 0.0 0.00 0.00 0.00 92 1015.9
20260906113224 70 276 0.0 0.0 0.00 0.00 0.00 93 1016.3
20260906112724 70 276 0.0 0.0 0.00 0.00 0.00 93 1015.9
20260906112221 69 276 0.0 0.0 0.00 0.00 0.00 93 1015.9
20260906111720 69 276 0.0 0.0 0.00 0.00 0.00 93 1015.6
20260906111215 70 276 0.0 0.0 0.00 0.00 0.00 92 1015.9
20260906110710 70 276 0.0 0.0 0.00 0.00 0.00 92 1015.9
20260906110206 70 276 0.0 0.0 0.00 0.00 0.00 92 1015.9
20260906105700 70 276 0.0 0.0 0.00 0.00 0.00 92 1015.9
20260906105156 70 276 0.0 0.0 0.00 0.00 0.00 91 1015.9
20260906104655 70 277 0.0 0.0 0.00 0.00 0.00 91 1015.9
20260906104149 70 277 0.0 0.0 0.00 0.00 0.00 91 1015.6
20260906103647 70 277 0.0 0.0 0.00 0.00 0.00 92 1015.9
20260906103143 70 277 0.0 0.0 0.00 0.00 0.00 92 1015.9
20260906102637 70 277 0.0 0.0 0.00 0.00 0.00 92 1015.6
20260906102131 70 276 0.0 0.0 0.00 0.00 0.00 92 1015.9
20260906101631 70 276 0.0 0.0 0.00 0.00 0.00 92 1015.6
20260906101131 70 276 0.0 0.0 0.00 0.00 0.00 91 1015.6
20260906100627 70 276 0.0 0.0 0.00 0.00 0.00 91 1015.9
20260906100122 70 276 0.0 0.0 0.00 0.00 0.00 91 1015.6
20260906095621 71 276 0.0 0.0 0.00 0.00 0.00 91 1015.6
20260906095117 71 276 0.0 0.0 0.00 0.00 0.00 91 1015.6
20260906094616 71 276 0.0 0.0 0.00 0.00 0.00 91 1015.6
20260906094112 71 276 0.0 0.0 0.00 0.00 0.00 91 1015.3
20260906093608 71 276 0.0 0.0 0.00 0.00 0.00 91 1015.3
20260906093102 71 276 0.0 0.0 0.00 0.00 0.00 91 1015.3
20260906092558 71 276 0.0 0.0 0.00 0.00 0.00 90 1015.3
20260906092053 71 276 0.0 0.0 0.00 0.00 0.00 90 1015.3
20260906091548 71 276 0.0 0.0 0.00 0.00 0.00 90 1015.3
20260906091045 71 276 0.0 0.0 0.00 0.00 0.00 90 1015.3
20260906090545 71 277 0.0 0.0 0.00 0.00 0.00 90 1015.3
20260906090040 71 276 0.0 0.0 0.00 0.00 0.00 90 1014.9
20260906085539 71 276 0.0 0.0 0.00 0.00 0.00 90 1014.9
20260906085038 71 276 0.0 0.0 0.00 0.00 0.00 90 1014.9
20260906084533 71 276 0.0 0.0 0.00 0.00 0.00 90 1014.9
20260906084032 71 276 0.0 0.0 0.00 0.00 0.00 90 1014.9
20260906083528 71 276 0.0 0.0 0.00 0.00 0.00 89 1014.9
20260906083028 71 276 0.0 0.0 0.00 0.00 0.00 89 1014.9
20260906082523 71 276 0.0 0.0 0.00 0.00 0.00 89 1014.6
20260906082019 71 276 0.0 0.0 0.00 0.00 0.00 89 1014.9
20260906081514 72 276 0.0 0.0 0.00 0.00 0.00 89 1014.6
20260906081009 72 276 0.0 0.0 0.00 0.00 0.00 89 1014.6
20260906080506 72 276 0.0 0.0 0.00 0.00 0.00 88 1014.6
20260906080001 72 276 0.0 0.0 0.00 0.00 0.00 88 1014.9
20260906075455 72 276 0.0 0.0 0.00 0.00 0.00 89 1014.9
20260906074950 72 276 0.0 0.0 0.00 0.00 0.00 89 1014.9
20260906074445 72 276 0.0 0.0 0.00 0.00 0.00 89 1014.9
20260906073943 72 276 0.0 0.0 0.00 0.00 0.00 88 1014.9
20260906073438 72 276 0.0 0.0 0.00 0.00 0.00 88 1014.9
20260906072935 72 276 0.0 0.0 0.00 0.00 0.00 88 1014.9
20260906072430 72 276 0.0 0.0 0.00 0.00 0.00 87 1014.9
20260906071926 72 276 0.0 0.0 0.00 0.00 0.00 87 1015.3
20260906071422 72 278 0.0 0.0 0.00 0.00 0.00 87 1015.3
20260906070917 73 278 0.0 0.0 0.00 0.00 0.00 87 1015.3
20260906070413 73 278 0.0 0.0 0.00 0.00 0.00 86 1015.3
20260906065908 73 278 0.0 0.0 0.00 0.00 0.00 86 1015.3
20260906065403 73 278 0.0 0.0 0.00 0.00 0.00 86 1015.3
20260906064858 73 278 0.0 0.0 0.00 0.00 0.00 86 1015.3
20260906064354 73 278 0.0 0.0 0.00 0.00 0.00 86 1015.3
20260906063854 73 278 0.0 0.0 0.00 0.00 0.00 85 1015.3
20260906063349 73 278 0.0 0.0 0.00 0.00 0.00 85 1015.6
20260906062844 73 278 0.0 0.0 0.00 0.00 0.00 85 1015.6
20260906062343 73 278 0.0 0.0 0.00 0.00 0.00 85 1015.6
20260906061839 73 278 0.0 0.0 0.00 0.00 0.00 85 1015.6
20260906061335 73 284 0.0 0.0 0.00 0.00 0.00 84 1015.6
20260906060830 74 286 0.0 0.0 0.00 0.00 0.00 84 1015.6
20260906060328 74 286 0.0 0.0 0.00 0.00 0.00 84 1015.6
20260906055823 74 286 0.0 0.0 0.00 0.00 0.00 84 1015.3
20260906055314 74 286 0.0 0.0 0.00 0.00 0.00 84 1015.6
20260906054809 74 286 0.0 0.0 0.00 0.00 0.00 84 1015.6
20260906054304 74 286 0.0 0.0 0.00 0.00 0.00 84 1015.6
20260906053801 74 286 0.0 0.0 0.00 0.00 0.00 83 1015.3
20260906053256 74 286 0.0 0.0 0.00 0.00 0.00 83 1015.6
20260906052751 74 286 0.0 0.0 0.00 0.00 0.00 83 1015.3
20260906052247 74 286 0.0 0.0 0.00 0.00 0.00 83 1015.3
20260906051743 74 286 0.0 0.0 0.00 0.00 0.00 83 1015.3
20260906051237 74 286 0.0 0.0 0.00 0.00 0.00 83 1015.3
20260906050733 74 286 0.0 0.0 0.00 0.00 0.00 82 1015.3
20260906050228 75 286 0.0 0.0 0.00 0.00 0.00 82 1015.3
20260906045726 75 286 0.0 0.0 0.00 0.00 0.00 81 1015.6
20260906045221 75 286 0.0 0.0 0.00 0.00 0.00 81 1015.3
20260906044717 75 286 0.0 0.0 0.00 0.00 0.00 81 1015.6
20260906044212 75 286 0.0 0.0 0.00 0.00 0.00 81 1015.3
20260906043708 75 286 0.0 0.0 0.00 0.00 0.00 80 1015.3
20260906043203 75 286 0.0 0.0 0.00 0.00 0.00 80 1015.6
20260906042703 75 286 0.0 0.0 0.00 0.00 0.00 80 1015.6
20260906042156 75 286 0.0 0.0 0.00 0.00 0.00 79 1015.6
20260906041652 76 291 0.0 0.0 0.00 0.00 0.00 79 1015.6
20260906041147 76 291 0.0 0.0 0.00 0.00 0.00 79 1015.6
20260906040643 76 291 0.0 0.0 0.00 0.00 0.00 79 1015.6
20260906040138 76 291 0.0 0.0 0.00 0.00 0.00 78 1015.6
20260906035633 76 291 0.0 0.0 0.00 0.00 0.00 78 1015.3
20260906035129 76 291 0.0 0.0 0.00 0.00 0.00 78 1015.3
20260906034629 76 291 0.0 0.0 0.00 0.00 0.00 78 1015.3
20260906034124 76 291 0.0 0.0 0.00 0.00 0.00 77 1015.3
20260906033620 77 291 0.0 0.0 0.00 0.00 0.00 76 1015.3
20260906033114 77 291 0.0 0.0 0.00 0.00 0.00 76 1015.3
20260906032611 77 260 2.0 2.0 0.00 0.00 0.00 76 1015.3
20260906032111 77 293 0.0 0.0 0.00 0.00 0.00 75 1015.3
20260906031606 77 293 0.0 0.0 0.00 0.00 0.00 75 1015.3
20260906031102 78 293 0.0 0.0 0.00 0.00 0.00 74 1015.3
20260906030601 78 293 0.0 0.0 0.00 0.00 0.00 74 1015.3
20260906030055 78 293 0.0 0.0 0.00 0.00 0.00 73 1014.9
20260906025550 78 293 0.0 0.0 0.00 0.00 0.00 73 1014.9
20260906025048 78 293 0.0 0.0 0.00 0.00 0.00 72 1014.9
20260906024543 79 293 0.0 0.0 0.00 0.00 0.00 72 1014.9
20260906024043 79 293 0.0 0.0 0.00 0.00 0.00 71 1014.6
20260906023539 79 293 0.0 0.0 0.00 0.00 0.00 70 1014.6
20260906023034 79 293 0.0 0.0 0.00 0.00 0.00 70 1014.6
20260906022530 80 293 0.0 0.0 0.00 0.00 0.00 69 1014.6
20260906022025 80 293 0.0 0.0 0.00 0.00 0.00 69 1014.6
20260906021521 80 293 0.0 0.0 0.00 0.00 0.00 68 1014.6
20260906021020 81 293 0.0 0.0 0.00 0.00 0.00 67 1014.6
20260906020519 81 293 0.0 0.0 0.00 0.00 0.00 66 1014.6
20260906020014 81 293 0.0 0.0 0.00 0.00 0.00 65 1014.2
20260906015512 82 293 0.0 0.0 0.00 0.00 0.00 65 1014.2
20260906015007 82 293 0.0 0.0 0.00 0.00 0.00 64 1014.2
20260906014502 83 310 0.0 0.0 0.00 0.00 0.00 63 1013.8
20260906013957 83 310 0.0 0.0 0.00 0.00 0.00 61 1014.2
20260906013452 83 311 0.0 0.0 0.00 0.00 0.00 61 1013.8
20260906012948 84 310 1.0 1.0 0.00 0.00 0.00 60 1014.2
20260906012443 84 310 1.0 1.0 0.00 0.00 0.00 59 1014.2
20260906011942 85 325 0.0 0.0 0.00 0.00 0.00 58 1013.8
20260906011438 85 292 0.0 0.0 0.00 0.00 0.00 57 1013.8
20260906010932 85 291 0.0 0.0 0.00 0.00 0.00 56 1013.8
20260906010428 86 291 0.0 0.0 0.00 0.00 0.00 56 1013.5
20260906005925 86 291 0.0 0.0 0.00 0.00 0.00 55 1013.8
20260906005424 87 290 0.0 0.0 0.00 0.00 0.00 54 1013.8
20260906004922 87 324 0.0 0.0 0.00 0.00 0.00 53 1013.8
20260906004416 88 314 0.0 0.0 0.00 0.00 0.00 52 1013.8
20260906003912 88 291 1.0 1.0 0.00 0.00 0.00 51 1013.8
20260906003407 89 291 1.0 1.0 0.00 0.00 0.00 50 1013.8
20260906002902 89 308 0.0 0.0 0.00 0.00 0.00 49 1013.5
20260906002401 90 283 1.0 1.0 0.00 0.00 0.00 48 1013.8
20260906001852 90 302 2.0 2.0 0.00 0.00 0.00 47 1013.8
20260906001348 91 173 2.0 3.0 0.00 0.00 0.00 45 1013.8
20260906000843 92 170 4.0 5.0 0.00 0.00 0.00 44 1013.8
20260906000343 93 208 5.0 6.0 0.00 0.00 0.00 43 1013.8
20260905235842 95 99 2.0 2.0 0.00 0.00 0.00 40 1013.8
20260905235337 95 199 2.0 2.0 0.00 0.00 0.00 40 1013.5
20260905234833 98 268 3.0 3.0 0.00 0.00 0.00 38 1013.5
20260905234328 99 279 2.0 2.0 0.00 0.00 0.00 36 1013.5
20260905233823 99 331 3.0 3.0 0.00 0.00 0.00 34 1013.1
20260905233318 99 332 2.0 2.0 0.00 0.00 0.00 34 1013.1
20260905232817 99 332 3.0 3.0 0.00 0.00 0.00 34 1013.1
20260905232313 99 118 4.0 5.0 0.00 0.00 0.00 33 1013.1
20260905231808 100 338 1.0 1.0 0.00 0.00 0.00 33 1013.1
20260905231303 100 325 0.0 0.0 0.00 0.00 0.00 32 1013.1
20260905230759 100 326 2.0 2.0 0.00 0.00 0.00 32 1013.1
20260905230258 100 335 1.0 0.0 0.00 0.00 0.00 33 1012.8
20260905225757 100 346 0.0 0.0 0.00 0.00 0.00 32 1012.8
20260905225252 100 315 2.0 2.0 0.00 0.00 0.00 33 1013.1
20260905224751 99 207 3.0 5.0 0.00 0.00 0.00 33 1012.8
20260905224247 98 354 1.0 2.0 0.00 0.00 0.00 34 1012.8
20260905223742 98 325 0.0 0.0 0.00 0.00 0.00 35 1012.8
20260905223240 98 326 1.0 1.0 0.00 0.00 0.00 35 1012.8
20260905222736 97 281 0.0 0.0 0.00 0.00 0.00 39 1013.1
20260905222234 96 294 1.0 1.0 0.00 0.00 0.00 36 1012.8
20260905221730 96 293 1.0 1.0 0.00 0.00 0.00 40 1013.1
20260905221227 97 300 1.0 1.0 0.00 0.00 0.00 40 1013.1
20260905220722 97 308 1.0 1.0 0.00 0.00 0.00 39 1013.1
20260905220218 98 314 0.0 0.0 0.00 0.00 0.00 37 1013.1
20260905215717 98 314 0.0 0.0 0.00 0.00 0.00 37 1013.1
20260905215213 99 314 1.0 1.0 0.00 0.00 0.00 35 1013.1
20260905214709 99 315 0.0 0.0 0.00 0.00 0.00 34 1013.5
20260905214204 100 337 1.0 1.0 0.00 0.00 0.00 34 1013.1
20260905213659 100 336 1.0 2.0 0.00 0.00 0.00 33 1013.1
20260905213155 100 330 1.0 1.0 0.00 0.00 0.00 33 1013.5
20260905212650 101 316 1.0 1.0 0.00 0.00 0.00 32 1013.5
20260905212149 102 325 1.0 1.0 0.00 0.00 0.00 31 1013.5
20260905211644 103 328 1.0 1.0 0.00 0.00 0.00 31 1013.5
20260905211140 104 331 1.0 1.0 0.00 0.00 0.00 30 1013.5
20260905210636 104 334 0.0 0.0 0.00 0.00 0.00 30 1013.1
20260905210131 104 352 2.0 3.0 0.00 0.00 0.00 29 1013.5
20260905205630 103 327 1.0 1.0 0.00 0.00 0.00 29 1013.5
20260905205130 103 55 3.0 3.0 0.00 0.00 0.00 29 1013.5
20260905204624 103 349 2.0 2.0 0.00 0.00 0.00 30 1014.2
20260905204119 103 76 2.0 2.0 0.00 0.00 0.00 30 1013.8
20260905203614 103 337 2.0 2.0 0.00 0.00 0.00 30 1014.2
20260905203108 103 335 3.0 3.0 0.00 0.00 0.00 31 1014.2
20260905202604 104 331 2.0 2.0 0.00 0.00 0.00 30 1014.2
20260905202059 103 322 2.0 2.0 0.00 0.00 0.00 30 1014.2
20260905201555 103 291 1.0 1.0 0.00 0.00 0.00 30 1014.2
20260905201054 103 172 2.0 3.0 0.00 0.00 0.00 29 1014.2
20260905200550 103 351 3.0 3.0 0.00 0.00 0.00 30 1013.8
20260905200050 103 356 1.0 1.0 0.00 0.00 0.00 30 1014.2
20260905195543 102 341 1.0 1.0 0.00 0.00 0.00 31 1014.6
20260905195039 102 342 1.0 1.0 0.00 0.00 0.00 32 1014.2
20260905194539 103 7 1.0 1.0 0.00 0.00 0.00 31 1014.6
20260905194038 104 175 1.0 2.0 0.00 0.00 0.00 30 1014.2
20260905193533 105 203 5.0 5.0 0.00 0.00 0.00 29 1014.6
20260905193028 105 349 5.0 7.0 0.00 0.00 0.00 29 1014.6
20260905192523 103 343 1.0 1.0 0.00 0.00 0.00 30 1014.9
20260905192020 104 343 1.0 1.0 0.00 0.00 0.00 31 1014.9
20260905191518 103 130 2.0 2.0 0.00 0.00 0.00 30 1014.9
20260905191018 101 341 0.0 0.0 0.00 0.00 0.00 32 1014.9
20260905190515 100 264 2.0 2.0 0.00 0.00 0.00 34 1014.9
20260905190010 102 144 3.0 5.0 0.00 0.00 0.00 33 1014.9
20260905185505 101 344 2.0 2.0 0.00 0.00 0.00 33 1015.3
20260905185003 101 331 3.0 3.0 0.00 0.00 0.00 34 1015.3
20260905184458 102 114 4.0 3.0 0.00 0.00 0.00 32 1015.3
20260905183957 103 344 1.0 2.0 0.00 0.00 0.00 32 1015.3
20260905183451 104 175 3.0 3.0 0.00 0.00 0.00 32 1015.6
20260905182946 102 295 0.0 0.0 0.00 0.00 0.00 32 1015.6
20260905182445 102 78 4.0 3.0 0.00 0.00 0.00 33 1015.9
20260905181940 103 315 1.0 1.0 0.00 0.00 0.00 32 1015.9
20260905181435 103 323 1.0 1.0 0.00 0.00 0.00 33 1015.9
20260905180934 101 337 1.0 1.0 0.00 0.00 0.00 33 1015.9
20260905180429 101 353 2.0 2.0 0.00 0.00 0.00 33 1015.9
20260905175924 99 304 0.0 0.0 0.00 0.00 0.00 35 1015.9
20260905175424 99 327 1.0 1.0 0.00 0.00 0.00 36 1016.6
20260905174919 99 326 0.0 0.0 0.00 0.00 0.00 37 1016.3
20260905174415 100 325 2.0 2.0 0.00 0.00 0.00 37 1016.6
20260905173910 101 20 4.0 5.0 0.00 0.00 0.00 34 1016.3
20260905173406 100 344 3.0 5.0 0.00 0.00 0.00 35 1016.3
20260905172901 101 345 4.0 7.0 0.00 0.00 0.00 36 1016.6
20260905172359 101 19 1.0 1.0 0.00 0.00 0.00 35 1016.6
20260905171855 101 351 3.0 3.0 0.00 0.00 0.00 35 1016.6
20260905171351 100 347 1.0 1.0 0.00 0.00 0.00 36 1016.6
20260905170848 100 322 4.0 3.0 0.00 0.00 0.00 35 1016.6
20260905170344 99 322 1.0 1.0 0.00 0.00 0.00 37 1017.0
20260905165843 100 345 2.0 3.0 0.00 0.00 0.00 37 1017.0
20260905165338 99 342 1.0 2.0 0.00 0.00 0.00 37 1017.3
20260905164832 99 332 4.0 5.0 0.00 0.00 0.00 38 1017.0
20260905164327 99 336 2.0 2.0 0.00 0.00 0.00 38 1017.3
20260905163822 99 341 0.0 0.0 0.00 0.00 0.00 38 1017.3
20260905163319 98 94 1.0 3.0 0.00 0.00 0.00 38 1017.3